Location: Kapuskasing
(49.3803°N, 82.4001°W)
Time: 10:17:30
(UTC-04:00)

Envisat - Pass Details

Date: 19 March 2026
Orbit: 761 x 762 km, 98.4° (Epoch: 11 April)

Event Time Altitude Azimuth Distance (km) Brightness Sun altitude
Rises 02:51:56 0° 28° (NNE) 3,235 7.2 -38.6°
Reaches altitude 10° 02:55:07 10° 49° (NE) 2,303 6.1 -38.4°
Enters shadow 02:56:57 15° 69° (ENE) 1,964 5.5 -38.3°
